Regional Weather Roundup
Issued by NWS

Home | Current Version | Previous Version | Graphics & Text | Print | Product List | Glossary On
Versions: 1 2 3 4 5 6 7 8 9 10 11 12 13 14 15 16 17 18 19 20 21 22 23 24 25 26 27 28 29 30 31 32 33 34 35 36 37 38 39 40 41 42 43 44 45 46 47 48 49 50
000
ASUS43 KMPX 182110
RWRMN
WEATHER ROUNDUP FOR MINNESOTA
NATIONAL WEATHER SERVICE TWIN CITIES/CHANHASSEN MN
400 PM CDT THU SEP 18 2014


NOTE: "FAIR" INDICATES FEW OR NO CLOUDS BELOW 12,000 FEET WITH NO
SIGNIFICANT WEATHER AND/OR OBSTRUCTIONS TO VISIBILITY. N/A MEANS
CURRENT SKY AND/OR WEATHER CONDITIONS ARE NOT AVAILABLE.

MNZ060>063-068>070-182200-
   Twin Cities Metro

CITY           SKY/WX    TMP DP  RH WIND       PRES   REMARKS
TWIN CITIES    MOSUNNY   74  52  46 SE10      30.01F
ST PAUL        MOSUNNY   74  57  55 SE6       30.02F
CRYSTAL        MOSUNNY   72  55  55 SE7G21    30.00F
BLAINE         MOSUNNY   73  57  56 SE12      30.02F
LAKEVILLE      SUNNY     73  52  46 S9        30.01F
EDEN PRAIRIE     N/A    N/A N/A N/A MISG        N/A
SOUTH ST PAUL  MOSUNNY   71  55  55 SE6       30.01F
LAKE ELMO      PTSUNNY   70  57  64 SE8       30.03F
$$
MNZ001>005-007-008-013>017-022>024-027-028-182200-
   Northwest Minnesota

CITY           SKY/WX    TMP DP  RH WIND       PRES   REMARKS
BEMIDJI        SUNNY     66  51  58 SE12      29.94F
HALLOCK        SUNNY     73  54  49 S17G25    29.80F
ROSEAU         SUNNY     70  55  60 SE14G21   29.87F
WARROAD        SUNNY     63  55  77 E8        29.89F
THIEF RVR FALL PTSUNNY   73  54  49 S17       29.85F
CROOKSTON      SUNNY     73  57  56 S17G23    29.85F
FOSSTON        SUNNY     73  54  49 S16       29.89F
DETROIT LAKES  SUNNY     68  55  64 S13       29.93F
MOORHEAD       SUNNY     73  61  64 S14G26    29.88F
PARK RAPIDS    MOSUNNY   66  52  60 SE16      29.95F
MAHNOMEN       CLOUDY    71  55  55 S16G24    29.89F
$$
MNZ006-009>011-018-025>026-182200-
   North Central Minnesota

CITY           SKY/WX    TMP DP  RH WIND       PRES   REMARKS
BAUDETTE       SUNNY     61  50  67 SE8       29.93F
FLAG ISLAND    CLOUDY    52  46  82 SE7G16    29.92F
INTL FALLS     SUNNY     62  48  60 SE9       29.98F
WASKISH        SUNNY     64  54  68 SE10      29.94F
BIG FORK       SUNNY     66  52  59 SE8       29.99F
LONGVILLE      SUNNY     64  54  68 S7        29.99F
GRAND RAPIDS   SUNNY     61  46  59 SE14      30.02F
CRANE LAKE     SUNNY     55  45  67 CALM      30.04F
ORR            SUNNY     61  45  55 S9        29.99F
COOK           SUNNY     61  46  59 S8        30.02F
WALKER         FAIR      62  51  67 S7        29.97F
$$
MNZ012-019>021-037-182200-
   Northeast Minnesota

CITY           SKY/WX    TMP DP  RH WIND       PRES   REMARKS
DULUTH         CLOUDY    48  41  76 E10       30.09F
ELY            MOSUNNY   54  41  62 S9        30.06F
HIBBING        MOSUNNY   61  47  59 S9G18     30.04F
EVELETH        SUNNY     57  45  62 SE10      30.05F
DULUTH HARBOR  CLOUDY    50  45  81 NE15      30.11F
TWO HARBORS    CLOUDY    46  37  71 E9        30.09F
SILVER BAY     SUNNY     45  41  87 NE8       30.10F
GRAND MARAIS     N/A     46  35  65 E10       30.15F
G MARAIS ARPRT CLOUDY    41  30  65 SE6       30.13F
$$
MNZ029>031-032-039>041-046>048-054>057-064-182200-
   West Central Minnesota

CITY           SKY/WX    TMP DP  RH WIND       PRES   REMARKS
FERGUS FALLS   MOSUNNY   73  54  49 S22       29.91F
WHEATON        SUNNY     73  57  56 SE18      29.90F
MORRIS         MOSUNNY   75  55  50 S16G23    29.91F
ALEXANDRIA     SUNNY     72  57  59 S13       29.97F
ELBOW LAKE     FAIR      73  58  60 S17G26    29.92F
WADENA         MOSUNNY   66  54  63 S15G21    29.95F
GLENWOOD       SUNNY     73  57  56 SE13      29.97F
APPLETON       MOSUNNY   79  54  41 S10G20    29.92S
BENSON         PTSUNNY   75  55  50 S15       29.94F
ORTONVILLE     MOSUNNY   77  55  47 S16       29.90F
MADISON        SUNNY     81  55  41 S14       29.92F
WILLMAR        FAIR      75  52  43 S9        29.98S
$$
MNZ033>034-036-042>043-049>051-058-059-182200-
   Central Minnesota

CITY           SKY/WX    TMP DP  RH WIND       PRES   REMARKS
ST CLOUD       SUNNY     73  55  53 SE9       29.99F
SAUK CENTRE    MOCLDY    72  56  56 SE13G22   29.97F
PAYNESVILLE    MOSUNNY   70  53  54 SE9G17    29.98F
AITKIN         SUNNY     64  54  68 SE6       30.01F
PINE RIVER     SUNNY     61  52  72 SE8       30.03F
BRAINERD       SUNNY     61  52  72 VRB5      30.01F
STAPLES        SUNNY     64  52  63 S12       29.98F
LONG PRAIRIE   FAIR      68  54  60 SE10      29.98F
LITTLE FALLS   SUNNY     68  52  56 SE12      29.99F
LITCHFIELD     MOSUNNY   73  54  49 SE7       29.99F
BUFFALO        SUNNY     73  54  51 SE10      30.00F
MAPLE LAKE     MOSUNNY   74  58  56 SE5       30.00F
$$
MNZ037-044-045-052-053-182200-
   East Central Minnesota

CITY           SKY/WX    TMP DP  RH WIND       PRES   REMARKS
PRINCETON      SUNNY     72  57  60 E9        30.02F
MORA           SUNNY     63  52  67 SE5       30.05F
CAMBRIDGE      SUNNY     72  55  56 S6        30.01F
RUSH CITY      MOSUNNY   67  55  65 S5        30.03F
MOOSE LAKE     CLOUDY    55  50  82 E5        30.04F
HINCKLEY       FAIR      63  54  72 SE6       30.05F
CLOQUET        CLOUDY    48  43  81 E8        30.08F
MCGREGOR       PTSUNNY   57  50  77 SE12      30.04F
$$
MNZ071>073-080-081-089-090-097-098-182200-
   Southwest Minnesota

CITY           SKY/WX    TMP DP  RH WIND       PRES   REMARKS
MONTEVIDEO     MOSUNNY   79  55  44 S10G20    29.95S
GRANITE FALLS  SUNNY     75  55  48 SE14      29.96F
CANBY          MOSUNNY   77  55  47 S9G18     29.93F
MARSHALL       MOSUNNY   75  54  46 S16       29.95S
REDWOOD FALLS  SUNNY     77  51  40 S17       29.96F
OLIVIA         MOSUNNY   73  52  46 SE10      29.96F
PIPESTONE      MOSUNNY   75  52  43 S14G22    29.96F
WINDOM         SUNNY     73  52  46 S12G17    29.99F
WORTHINGTON    SUNNY     73  52  46 S9        29.99F
JACKSON        SUNNY     73  46  38 SE10G17   30.00F
TRACY          SUNNY     76  54  46 S9        29.97F
SLAYTON        MOSUNNY   73  50  43 SE8G16    29.99S
$$
MNZ065>067-074>077-082>085-091>093-182200-
   South Central Minnesota

CITY           SKY/WX    TMP DP  RH WIND       PRES   REMARKS
MANKATO        SUNNY     73  50  43 S8        30.00F
NEW ULM        SUNNY     73  55  53 S10       29.98F
ST JAMES       SUNNY     75  48  38 S10G18    30.00F
FAIRMONT       SUNNY     73  45  35 S10G17    30.00F
GLENCOE        MOSUNNY   76  48  37 SE9       29.99F
FARIBAULT      MOSUNNY   79  45  29 S8        30.02F
OWATONNA       MOSUNNY   73  52  46 SE12      30.02F
WASECA         MOSUNNY   72  43  35 SE13      30.03F
ALBERT LEA     SUNNY     73  52  46 SE12      30.03F
$$
MNZ078>079-086>088-094>096-182200-
   Southeast Minnesota

CITY           SKY/WX    TMP DP  RH WIND       PRES   REMARKS
ROCHESTER      MOSUNNY   72  53  51 S8        30.06F
RED WING       SUNNY     72  55  56 E12       30.02F
STANTON        MOSUNNY   75  51  43 S7        30.01F
DODGE CENTER   MOSUNNY   72  52  49 S10       30.05F
WINONA         SUNNY     70  57  64 SE12      30.07S
AUSTIN         SUNNY     72  54  53 CALM      30.04F
PRESTON        PTSUNNY   70  58  66 S8        30.07S
$$
ABBREVIATIONS USED IN REMARKS
   TC - TEMPERATURES IN CELSIUS
  WCI - WIND CHILL INDEX
   HX - HEAT INDEX
  VSB - VISIBILITY
$$



USA.gov is the U.S. government's official web portal to all federal, state and local government web resources and services.